カタログに戻る

OBJECT G

運用中SSO
NORAD 100135·UNKNOWN·🇨🇳 China

打ち上げ Jul 22, 2026 から Yellow Sea Launch Area

Loading…

次のパス (今後24時間)

TLE

最新Source: Space-Track

元期: Sep 14, 2026, 04:24 UTC

1 A0135U 26168G   26257.18376115  .00003115  00000-0  19598-3 0  9991
2 A0135  97.5309 337.9778 0021106 144.2042 216.0607 15.09760537  8165

AllMySatでOBJECT Gをリアルタイム追跡

Download on the App Store